DELTA 1 DEB

Satellite information

Favourite Embed

Satellite Type and Status

DEBRISIN ORBIT

Key statistics

Satellite DELTA 1 DEB at a glance.

Uptime

17643

Days in orbit

Revolutions

≈ 13.4

Per day

Orbit

LEO

Low Earth Orbit

Inclination

29.0

Latest

Satellite identification and parameters

Extended collection of information and parameters for DELTA 1 DEB.

Object identification

Identified? True

Debris? True

Object name: DELTA 1 DEB

International designator: 1977-065EW

Object number (NORAD): 10627

Object ID (CCSDS): 10627

Country: UNITED STATES OF AMERICA (US)

Current information (Y/N): Y

RCS size: SMALL

Orbital parameters

Period: 107.181 minutes

Inclination: 28.9664 deg

SMA: 7474.349 km

Apoapsis: 1523.633 km

Periapsis: 668.795 km

RAAN: 170.1315 deg

Eccentricy: 0.0571848

Argument of periapsis: 57.4082 deg

Mean anomaly: 308.0384 deg

Mean motion: 13.43515494 rev/day

Mean motion (dot): 0.00008695 rev/day2

B* drag term: 0.0055240002 1/REarth

Two-line elements (TLE)

Creation date: Nov. 1, 2025, 7:40 p.m.

Reference frame: TEME

Reference center: EARTH

Epoch: Oct. 31, 2025, 6:07 p.m. UTC

TLE line 0: 0 DELTA 1 DEB

TLE line 1: 1 10627U 77065EW 25304.75530215 .00008695 00000-0 55240-2 0 9999

TLE line 2: 2 10627 28.9664 170.1315 0571848 57.4082 308.0384 13.43515494299487

Live tracking on map

Real-time ground track for satellite DELTA 1 DEB.

In-orbit conjunctions

A list of the most updated potential collisions computed for object DELTA 1 DEB.

Target Orbit TCA Probability of collision Miss distance Type
COSMOS 1162 LEO 2025-10-26 08:53:45 0.0004429632 272.0 (m) PAYLOAD

Associated space launch

Japanese meteorological satellite built by Hughes Space and Communications Company

DELTA 1 DEB was lifted into orbit during the mission ‘Delta 2914 | Himawari’, on board a Delta 2914 space rocket.

The launch took place on July 14, 1977, 10:39 a.m. from Space Launch Complex 17B.

For more information about the launch, click the button.

Launch to space Delta 2914 | Himawari
Delta 2914 | Himawari

Agency: N/A

Status: Launch Successful

Launch date: July 14, 1977, 10:39 a.m. UTC

Rocket: Delta 2914

Launch pad: Space Launch Complex 17B

Location: Cape Canaveral SFS, FL, USA

...

Latest news about this satellite

There are no fresh news available about this satellite. Check back as we update our databases every day.


Newsletter sign-up

Weekly statistics, charts and insights to help you stay on top of the space industry.